Vertical_Velocity
-1 -2 -9 -5 -5 39 6 4 -7 4 9 5 7 -3 -0 6 2 -3 -5 -2 -6 -0 -1 4 -0 -3 -3 -4 -3 -1 -1 -1
-1 23 17 -3 -14 -45 24 35 -13 2 8 2 4 4 5 4 -2 1 -3 -2 -10 -3 0 -1 -1 2 -1 -1 -0 -1 -2 3
4 0 -1 4 1 0 -6 11 4 5 4 5 3 0 3 3 0 -0 0 0 -6 -11 1 2 1 1 -3 1 -3 -1 3 0
12 8 35 33 26 4 5 18 14 1 -2 6 6 5 5 5 -6 1 2 6 -2 -13 -6 1 -1 -3 1 -1 0 -1 -3 -6
-9 5 -30 0 22 -8 -7 -16 19 18 18 0 2 5 -1 -5 -1 -2 -3 2 -6 -6 1 0 7 1 -4 0 -3 0 -2 -4
0 8 -4 -16 -27 -11 -14 -10 -5 0 6 3 -3 1 2 4 -2 -2 -2 2 -5 -2 -1 1 -1 2 1 -2 -2 -5 -3 1
10 4 -3 -8 -5 1 -1 -3 -7 15 8 6 2 4 0 3 -1 0 -3 -4 -1 4 -1 -4 2 2 1 -2 -1 -5 -3 -4
-5 -0 -0 1 1 -4 -2 0 9 12 9 5 1 3 4 -1 -2 -4 -7 2 0 3 -3 -4 5 4 5 2 -2 -3 -0 -2
0 -0 10 26 11 5 4 17 3 9 9 -1 8 3 3 7 -6 0 -3 -3 -1 -1 2 -2 -5 6 -1 2 -0 -1 -1 -3
-3 -4 -4 18 8 18 5 5 1 0 4 5 0 0 -0 -3 -3 -1 -4 -1 -3 1 -3 -3 -1 -4 -2 -2 0 -1 -4 3
7 2 0 2 3 -1 3 6 8 11 4 2 2 -1 2 2 3 -3 -1 -2 -7 -4 -1 -2 1 2 1 3 4 -2 -2 1
2 -2 5 5 -1 3 -2 2 2 5 2 6 -3 0 6 -12 1 -8 3 1 -1 4 -4 1 1 1 2 4 1 -1 0 4
2 -5 -5 18 8 -2 2 4 5 2 1 5 -6 14 -1 -1 4 -6 -3 -1 8 6 0 -2 1 4 -0 1 -0 0 0 0
-0 3 3 -4 -1 -4 3 8 2 6 5 -1 -1 -2 3 1 -4 -3 5 -2 -2 2 -2 -0 1 1 -2 2 -2 -0 3 1
-4 -1 -6 -1 -8 -7 -2 -0 -2 2 -0 -0 -1 0 0 1 3 -2 6 -9 6 -1 -6 -1 1 -4 1 4 -1 -2 -2 -1
-2 5 0 -5 -4 -0 -5 0 -2 -6 -1 -4 -5 -9 -8 1 -1 9 2 -4 5 1 -3 -1 5 3 -2 0 -9 2 -3 -9
-2 -2 -2 -3 -5 1 -4 0 -2 -6 -6 -8 -3 1 -8 -4 -1 6 -10 6 4 -2 3 10 6 5 1 1 3 -1 -4 2
-5 0 -2 -1 -4 -5 -0 -4 -8 -11 -6 -2 -14 -8 2 6 8 -2 -1 3 -4 3 8 2 5 6 6 0 2 -4 -2 -7
-1 -1 -1 -3 -2 1 -1 -3 1 -8 2 -4 -3 6 -1 -1 -3 -1 9 1 7 5 5 6 6 7 4 3 -0 -0 -0 16
-2 -3 -6 -3 2 2 1 -2 -6 1 4 2 4 -2 10 8 9 8 1 -2 -14 -7 16 12 -6 0 8 0 -0 1 5 1
Height
3095 3097 3096 3101 3105 3107 3106 3120 3127 3133 3136 3138 3140 3140 3142 3144 3145 3147 3149 3149 3151 3155 3157 3159 3159 3160 3161 3162 3163 3164 3166 3167
3094 3097 3097 3098 3102 3102 3109 3115 3124 3133 3134 3137 3139 3140 3143 3145 3145 3147 3148 3149 3150 3156 3158 3158 3160 3160 3161 3163 3163 3164 3166 3167
3093 3094 3091 3091 3093 3102 3105 3113 3123 3131 3133 3135 3137 3139 3140 3143 3145 3148 3148 3150 3149 3151 3157 3158 3161 3162 3163 3162 3163 3166 3167 3168
3091 3091 3082 3079 3088 3098 3103 3117 3123 3126 3130 3135 3136 3139 3140 3141 3145 3149 3150 3151 3153 3152 3156 3158 3160 3161 3162 3163 3165 3166 3167 3168
3088 3087 3089 3087 3088 3093 3099 3109 3114 3124 3129 3132 3135 3138 3139 3143 3147 3151 3151 3153 3155 3155 3157 3158 3160 3161 3162 3163 3164 3166 3168 3169
3086 3087 3090 3091 3092 3099 3104 3108 3113 3124 3127 3130 3133 3138 3141 3144 3146 3150 3151 3153 3155 3156 3156 3160 3161 3161 3162 3162 3163 3165 3167 3168
3088 3091 3092 3091 3093 3098 3104 3107 3115 3120 3126 3129 3133 3138 3141 3144 3147 3150 3151 3154 3155 3155 3157 3159 3162 3163 3162 3163 3163 3165 3166 3166
3087 3089 3091 3094 3096 3099 3103 3110 3115 3121 3125 3129 3133 3138 3141 3143 3146 3149 3152 3154 3154 3154 3156 3159 3161 3162 3162 3162 3164 3165 3165 3166
3084 3087 3089 3091 3094 3101 3106 3111 3115 3121 3124 3128 3131 3136 3139 3142 3146 3149 3152 3153 3153 3155 3156 3158 3160 3161 3161 3161 3162 3163 3164 3164
3083 3086 3091 3093 3097 3099 3106 3106 3111 3118 3122 3127 3129 3133 3139 3142 3145 3148 3151 3153 3153 3155 3156 3157 3159 3158 3159 3160 3161 3161 3161 3161
3081 3086 3088 3090 3095 3098 3101 3106 3109 3116 3119 3124 3127 3131 3136 3141 3144 3147 3150 3151 3152 3154 3155 3156 3158 3158 3159 3158 3158 3158 3158 3158
3079 3082 3086 3088 3091 3095 3098 3101 3106 3112 3116 3121 3126 3130 3134 3139 3142 3145 3148 3149 3150 3152 3153 3154 3157 3157 3156 3156 3154 3154 3153 3153
3075 3078 3083 3086 3088 3091 3094 3100 3103 3109 3113 3117 3121 3127 3132 3135 3138 3141 3146 3147 3148 3149 3149 3152 3155 3155 3153 3152 3151 3149 3149 3150
3078 3077 3080 3082 3085 3090 3093 3098 3102 3107 3112 3114 3120 3124 3129 3134 3137 3139 3142 3144 3144 3145 3147 3150 3151 3151 3151 3149 3146 3146 3145 3144
3081 3082 3080 3081 3085 3088 3092 3097 3101 3104 3107 3110 3116 3120 3125 3131 3135 3137 3139 3139 3141 3142 3145 3147 3147 3146 3145 3144 3139 3140 3141 3140
3084 3084 3085 3085 3085 3089 3092 3095 3098 3101 3105 3109 3114 3118 3123 3128 3132 3134 3136 3137 3137 3139 3140 3142 3142 3142 3141 3139 3136 3133 3134 3131
3086 3086 3088 3090 3091 3092 3095 3097 3102 3105 3108 3110 3113 3116 3120 3124 3127 3130 3131 3132 3133 3135 3135 3136 3136 3136 3135 3134 3131 3129 3127 3125
3085 3087 3089 3090 3093 3093 3097 3101 3102 3104 3106 3109 3111 3114 3116 3120 3124 3125 3127 3127 3128 3129 3130 3130 3130 3130 3130 3128 3126 3124 3122 3120
3084 3086 3089 3090 3091 3093 3097 3099 3102 3103 3106 3107 3107 3110 3116 3120 3122 3121 3122 3123 3121 3121 3122 3122 3124 3123 3123 3121 3120 3119 3116 3112
3082 3084 3087 3088 3090 3092 3096 3098 3098 3100 3102 3104 3107 3110 3113 3114 3114 3114 3115 3113 3112 3112 3111 3113 3113 3115 3116 3115 3113 3112 3110 3107